Regional Weather Roundup
Issued by NWS

Home | Current Version | Previous Version | Text Only | Print | Product List | Glossary Off
Versions: 1 2 3 4 5 6 7 8 9 10 11 12 13 14 15 16 17 18 19 20 21 22 23 24 25 26 27 28 29 30 31 32 33 34 35 36 37 38 39 40 41 42 43 44 45 46 47 48 49 50

000
ASUS43 KOAX 201102
RWRNE

WEATHER ROUNDUP FOR NEBRASKA
NATIONAL WEATHER SERVICE OMAHA NE
500 AM CST TUE FEB 20 2018

NOTES: SATELLITE DATA IS BEING USED TO AUGMENT CLOUD COVER ABOVE
       12000 FEET.
       "FAIR" INDICATES FEW OR NO CLOUDS BELOW 12,000 FEET WITH NO
       SIGNIFICANT WEATHER AND/OR OBSTRUCTIONS TO VISIBILITY.


NEZ001>004-019>022-054>056-201200-
NEBRASKA PANHANDLE

CITY           SKY/WX    TMP DP  RH WIND       PRES   REMARKS
SCOTTSBLUFF    PTCLDY    -5  -9  83 NW5       29.95S WCI -16
ALLIANCE       LGT SNOW  -2  -5  87 NW7       29.92R FOG     WCI -15
CHADRON        MOCLDY    -4  -8  83 W3        30.01R
GORDON         LGT SNOW   0  -7  74 NW10G16   29.95R WCI -17
KIMBALL        MOCLDY    -3  -9  78 NW8       29.85S WCI -18
SIDNEY         CLOUDY    -1  -6  79 NW14      29.90R HAZE    WCI -20
$$

NEZ057>060-069>072-079>082-201200-
SOUTHWEST NEBRASKA

CITY           SKY/WX    TMP DP  RH WIND       PRES   REMARKS
NORTH PLATTE   PTCLDY     4  -4  69 NW15      29.98R WCI -14
IMPERIAL       MOCLDY     3  -4  72 NW21G26   29.95R WCI -18
LEXINGTON      MOCLDY    10   3  74 N14       29.96S WCI  -6
MCCOOK         MOCLDY     8   3  80 NW21      29.98R WCI -12
OGALLALA       PTCLDY     1  -5  75 NW7       29.97R WCI -11
$$

NEZ005>010-023>029-035>040-094-201200-
NORTH CENTRAL NEBRASKA

CITY           SKY/WX    TMP DP  RH WIND       PRES   REMARKS
VALENTINE      LGT SNOW   3  -4  72 NW14      30.00R WCI -15
AINSWORTH      LGT SNOW   3  -1  83 NW16      29.97R WCI -16
BROKEN BOW     LGT SNOW   6   0  76 NW16G26   29.95R WCI -12
O`NEILL        LGT SNOW   5   1  82 NW17G24   29.97R WCI -14
ORD            CLOUDY     7   0  73 NW16      29.97R WCI -11
THEDFORD       CLOUDY     3  -3  77 NW16G22   29.96S WCI -17
$$

NEZ041-046>049-061>064-073>077-083>087-201200-
SOUTH CENTRAL NEBRASKA

CITY           SKY/WX    TMP DP  RH WIND       PRES   REMARKS
GRAND ISLAND   CLOUDY    12   6  77 NW17      29.97R WCI  -5
AURORA         CLOUDY    13   8  79 NW16      29.95R WCI  -3
HASTINGS       CLOUDY    13   6  74 N17       29.96R WCI  -4
HEBRON         CLOUDY    18  15  90 NW9       29.97R FOG     WCI   6
HOLDREGE       CLOUDY    10   5  79 N18G24    29.93F WCI  -8
KEARNEY        CLOUDY    10   4  76 N17       29.95S WCI  -8
YORK           CLOUDY    14  14 100 N16       29.94R WCI  -2
$$

NEZ011>018-030>034-042>045-201200-
NORTHEAST NEBRASKA

CITY           SKY/WX    TMP DP  RH WIND       PRES   REMARKS
NORFOLK        CLOUDY    10   6  84 NW13G21   29.95R WCI  -5
ALBION         CLOUDY    10   4  78 NW15      29.97R WCI  -7
BLAIR          CLOUDY    20  18  91 NW8       29.89S FOG     WCI  11
COLUMBUS       CLOUDY    13   8  81 NW16      29.97R WCI  -3
FREMONT        CLOUDY    18  14  87 NW16      29.93R WCI   3
TEKAMAH        CLOUDY    19  15  84 NW18      29.93R WCI   4
WAYNE          CLOUDY    12   9  88 NW12      29.93S WCI  -2
$$

NEZ050>053-065>068-078-088>093-201200-
SOUTHEAST NEBRASKA

CITY           SKY/WX    TMP DP  RH WIND       PRES   REMARKS
LINCOLN        CLOUDY    19  16  88 NW14      29.96R FOG     WCI   6
OMAHA EPPLEY   FRZ RAIN  21  18  88 NW13      29.92R FOG     WCI   9
BEATRICE       CLOUDY    22  20  93 NW14      29.92R FOG     WCI   9
FALLS CITY     CLOUDY    23  21  92 NW13G24   29.89R WCI  11
NEBRASKA CITY  CLOUDY    22  22 100 N12       29.90R FOG     WCI  11
PLATTSMOUTH    LGT SNOW  21  20  95 NW9       29.91R WCI  11
$$

NEZ044-045-051>053-067-201200-
OMAHA AREA

CITY           SKY/WX    TMP DP  RH WIND       PRES   REMARKS
OMAHA EPPLEY   FRZ RAIN  21  18  88 NW13      29.92R FOG     WCI   9
BLAIR          CLOUDY    20  18  91 NW8       29.89S FOG     WCI  11
FREMONT        CLOUDY    18  14  87 NW16      29.93R WCI   3
MILLARD        CLOUDY    22  19  87 NW9       29.93R WCI  12
OFFUTT AFB     FRZ DRZL  21  19  90 NW9       29.91R WCI  11
PLATTSMOUTH    LGT SNOW  21  20  95 NW9       29.91R WCI  11
WAHOO          CLOUDY    19  15  84 NW15      29.92S WCI   5
$$




USA.gov is the U.S. government's official web portal to all federal, state and local government web resources and services.